SCP
1 1 2 2 2 2 3 3 3 3 4 4 3 2 2 2 2 2 2 2 2 2 2 2 2 2 2 2 2 2 2 2 1 1 1 1 1 1 1 1 1 1 1
1 2 2 2 2 2 2 2 3 3 3 3 3 2 2 2 2 3 3 3 2 2 2 2 2 2 2 2 2 3 2 2 1 1 1 1 1 1 1 1 1 1 1
2 2 2 2 2 2 2 2 2 2 3 3 3 3 3 3 3 4 4 4 3 2 2 2 2 3 3 3 3 3 2 2 1 1 1 1 1 1 1 1 1 1 1
2 2 2 2 2 2 2 2 2 3 3 3 3 3 4 4 4 5 6 5 4 3 2 2 2 2 3 3 3 3 2 2 2 1 1 1 1 1 1 1 1 1 1
2 2 2 2 2 3 3 3 3 3 3 2 2 2 3 4 4 5 6 5 4 2 2 2 2 2 3 3 3 3 3 2 2 2 1 1 1 1 1 1 1 1 1
3 3 3 3 3 4 4 3 3 2 2 2 1 2 2 2 3 3 3 3 2 2 2 2 2 3 3 3 3 3 3 2 2 2 2 1 1 1 1 1 1 1 1
3 3 3 3 3 3 3 3 2 2 2 1 1 2 2 1 1 1 1 1 1 1 1 1 2 3 3 3 3 3 3 2 2 2 2 1 1 1 1 1 1 1 0
3 3 3 3 2 2 2 2 2 2 1 1 1 1 1 1 1 1 1 1 1 1 1 1 1 2 3 3 3 3 3 3 2 2 1 1 1 1 1 1 1 1 0
3 3 3 2 2 2 2 1 1 1 1 1 1 1 1 1 1 1 1 0 0 0 0 1 1 1 2 2 2 2 2 2 2 1 1 1 1 1 1 1 1 1 1
2 3 2 2 2 2 2 1 1 1 1 1 1 1 1 1 1 1 1 0 0 0 0 1 1 1 1 2 2 2 2 2 2 1 1 1 1 1 1 1 1 1 1
2 2 2 2 2 2 2 2 1 1 1 1 1 1 1 1 1 1 0 0 0 0 1 1 1 1 1 1 1 2 2 2 2 1 1 1 1 1 1 0 0 1 1
2 2 2 2 1 1 1 1 1 1 1 1 1 1 1 1 1 1 0 0 0 0 1 1 1 1 1 1 1 1 1 1 1 1 1 1 1 1 0 0 0 0 0
2 2 2 1 1 1 1 1 1 1 1 1 1 1 1 1 1 1 0 0 0 0 0 1 1 1 0 0 0 0 1 1 1 1 1 1 1 1 1 0 0 0 0
3 2 2 1 1 1 1 1 1 1 1 1 1 1 1 1 1 0 0 0 0 0 0 0 0 0 0 0 0 0 0 0 0 1 1 1 1 1 1 0 0 0 0
2 2 1 1 1 1 1 1 1 1 1 1 1 1 1 1 0 0 0 0 0 0 0 0 0 0 0 0 0 0 0 0 0 0 0 0 1 1 0 0 0 0 0
2 2 1 1 1 1 1 1 1 1 1 1 1 1 1 0 0 0 0 0 0 0 0 0 0 0 0 0 0 0 0 0 0 0 0 0 0 0 0 0 0 0 0
1 1 1 1 1 1 1 1 1 1 1 0 0 0 0 0 0 0 0 0 0 0 0 0 0 1 0 0 0 0 0 0 0 0 0 0 0 0 0 0 0 0 0
1 1 1 1 1 1 0 0 0 0 0 0 0 0 0 0 0 0 0 0 0 0 0 0 0 1 0 0 0 0 0 0 0 0 0 0 0 0 0 0 0 0 0
1 1 1 1 1 0 0 0 0 0 0 0 0 0 0 0 0 0 0 0 0 0 0 0 0 0 0 0 0 0 0 0 0 0 0 0 0 0 0 0 0 0 0
2 1 1 0 0 0 0 0 0 0 0 0 0 0 0 0 0 0 0 0 0 0 0 0 0 0 0 0 0 0 0 0 0 0 0 0 0 0 0 0 0 0 0
2 1 1 0 0 0 0 0 0 0 0 0 0 0 0 0 0 0 0 0 0 0 0 0 0 0 0 0 0 0 0 0 0 0 0 0 0 0 0 0 0 0 0
2 2 1 0 0 0 0 0 0 0 0 0 0 0 0 0 0 0 0 0 0 0 0 0 0 0 0 0 0 0 0 0 0 0 0 0 0 0 0 0 0 0 0
1 1 1 0 0 0 0 0 0 0 0 0 0 0 0 0 0 0 0 0 0 0 0 0 0 0 0 0 0 0 0 0 0 0 0 0 0 0 0 0 0 0 0
1 0 0 0 0 0 0 0 0 0 0 0 0 0 0 0 0 0 0 0 0 0 0 0 0 0 0 0 0 0 0 0 0 0 0 0 0 0 0 0 0 0 0
0 0 0 0 0 0 0 0 0 0 0 0 0 0 0 0 0 0 0 0 0 0 0 0 0 0 0 0 0 0 0 0 0 0 0 0 0 0 0 0 0 0 0
0 0 0 0 0 0 0 0 0 0 0 0 0 0 0 0 0 0 0 0 0 0 0 0 0 0 0 0 0 0 0 0 0 0 0 0 0 0 0 0 0 0 0
Wind_Speed
6 6 6 6 6 6 6 5 6 5 4 3 3 3 3 2 3 3 4 4 4 4 3 3 2 3 2 3 3 3 3 2 2 3 2 2 2 1 1 1 1 1 1
7 6 7 6 6 5 5 5 5 4 3 2 2 2 2 2 3 3 4 4 4 4 3 4 3 3 2 2 2 3 3 2 2 3 4 3 3 2 0 0 0 1 1
8 7 7 6 6 5 5 4 4 4 3 3 3 3 3 2 2 2 3 4 3 4 4 4 4 4 3 3 3 3 3 3 2 3 4 4 2 1 1 0 1 1 1
9 8 7 7 6 5 5 6 5 4 3 2 2 2 1 2 2 2 3 3 3 4 4 4 4 4 3 3 3 3 3 4 3 2 2 3 3 3 1 1 0 1 1
10 9 9 8 7 6 6 6 5 5 4 3 3 2 3 2 2 2 3 2 3 4 4 4 4 3 3 4 4 4 4 3 3 3 2 2 2 3 3 2 1 1 1
11 10 9 8 7 7 6 6 6 5 5 4 4 4 4 3 3 3 2 2 3 3 5 4 4 4 4 4 4 4 3 3 4 3 3 3 2 2 2 3 2 1 1
11 10 10 9 8 7 7 6 7 6 5 5 5 4 4 3 3 2 3 2 3 3 5 5 4 4 4 4 4 3 3 3 3 3 3 3 3 2 3 3 2 2 1
10 11 10 9 8 7 6 6 6 5 5 5 5 4 3 2 3 4 3 3 4 4 5 5 4 4 4 4 4 3 3 3 3 3 3 2 2 2 2 2 2 2 1
10 11 10 9 8 8 7 6 6 5 5 4 4 4 4 4 4 3 3 3 4 3 4 4 4 4 4 4 4 2 3 2 3 3 2 2 2 2 1 2 2 2 2
10 10 9 9 8 7 7 6 5 5 5 4 4 4 4 4 3 4 5 4 4 4 4 4 5 5 5 4 4 3 3 2 2 2 3 3 2 2 1 1 2 2 2
11 10 9 9 8 8 7 6 5 5 5 5 4 4 4 4 4 4 4 4 4 4 4 5 5 5 5 4 4 4 3 3 3 3 3 3 3 2 2 1 1 1 1
10 10 10 9 8 7 6 6 5 5 5 5 5 4 4 4 4 4 4 4 4 4 4 5 5 5 5 5 5 4 4 4 4 4 3 3 2 2 2 1 1 1 0
10 10 10 9 8 7 7 6 5 5 4 5 5 5 4 4 4 4 4 4 4 4 5 5 5 5 5 5 5 5 4 4 4 4 4 4 3 3 2 2 1 0 1
9 9 9 8 8 7 6 6 6 5 5 5 5 5 4 4 4 3 3 4 4 4 4 5 5 5 5 5 5 5 4 4 4 4 4 4 3 3 3 1 0 1 1
9 9 8 8 8 7 6 6 5 5 5 5 5 5 4 4 3 3 4 4 4 4 4 5 5 5 5 6 7 5 4 4 4 3 4 4 4 4 3 3 2 1 1
9 9 9 8 8 8 7 6 6 5 5 5 5 4 3 3 3 3 3 4 4 5 5 6 6 6 6 8 8 7 4 4 4 3 3 2 2 3 1 1 1 2 2
8 9 9 8 8 7 7 7 6 6 6 5 5 4 3 3 3 3 3 4 4 4 5 5 5 6 7 8 8 7 4 4 4 4 4 4 4 3 3 1 3 2 1
8 8 8 8 7 7 7 6 6 6 6 5 5 4 3 3 3 3 3 3 3 4 4 4 5 5 6 7 7 7 3 4 4 4 4 4 4 6 5 3 3 3 2
8 8 8 8 8 7 8 7 7 6 6 5 5 4 3 3 3 3 3 3 3 3 4 4 4 5 5 7 8 8 3 3 4 4 5 5 5 7 7 3 3 4 3
8 8 8 9 8 7 8 8 7 6 6 5 4 4 3 3 3 3 2 2 2 2 3 4 4 4 5 6 7 8 3 3 3 3 4 6 6 7 7 4 4 4 4
9 9 9 8 8 8 8 8 7 6 5 5 5 4 3 3 3 2 1 1 2 2 2 2 2 3 4 4 6 8 4 4 3 4 3 5 6 7 7 5 4 4 3
10 10 9 8 8 8 8 8 7 6 6 5 5 4 3 2 2 2 1 1 1 1 1 1 1 2 2 3 4 4 5 5 4 3 4 5 6 6 5 4 4 3 4
9 9 9 9 8 7 7 8 7 7 6 5 4 4 3 2 1 1 1 1 1 0 1 1 2 2 2 2 2 1 1 3 2 3 4 4 4 3 1 0 2 3 2
10 9 9 9 8 7 6 6 6 6 5 5 4 3 3 3 2 1 1 0 1 1 1 2 2 2 2 2 2 1 2 3 2 1 1 4 4 3 1 1 2 1 2
9 9 9 9 9 8 7 6 6 6 5 4 4 3 3 3 2 1 1 1 2 3 3 3 2 3 3 5 6 5 4 5 5 4 3 2 1 1 0 0 1 1 0
9 9 9 9 9 9 8 7 6 6 5 5 4 3 3 2 2 2 3 2 1 1 2 3 5 2 2 3 4 4 5 5 6 5 2 1 1 1 1 1 1 1 1
Wind_Direction
138 136 138 132 124 115 119 122 119 121 129 133 143 137 126 113 96 77 55 42 28 22 5 352 5 339 344 335 325 317 298 291 292 272 257 232 220 243 279 292 316 339 339
148 145 144 137 129 123 121 124 126 120 128 133 132 121 117 103 83 70 63 46 37 19 11 4 346 350 331 336 333 312 299 300 299 293 279 246 208 182 209 278 6 8 9
160 151 146 139 131 126 122 117 113 121 127 143 145 143 146 140 111 86 67 44 36 36 20 11 358 345 336 356 337 324 312 300 284 291 294 290 290 319 156 21 34 25 26
164 156 152 147 137 132 128 118 120 114 108 127 124 127 100 89 73 59 62 54 47 36 26 15 8 351 355 355 333 353 319 302 292 279 286 304 320 289 272 205 50 17 21
166 163 159 152 145 142 131 124 116 104 96 91 95 97 87 82 79 68 70 47 55 36 27 16 7 358 358 359 348 343 328 316 309 302 295 279 274 269 271 271 267 286 4
163 161 155 152 147 142 137 129 117 105 100 92 86 79 81 73 75 64 54 47 54 40 30 18 9 358 359 353 338 330 331 331 322 309 301 283 276 274 275 276 274 288 346
161 160 159 156 148 145 140 134 126 119 111 101 91 86 87 87 82 63 53 29 39 34 25 11 3 0 359 348 335 328 334 334 328 313 307 302 295 293 283 273 277 287 285
162 163 162 157 151 146 140 133 125 118 111 103 95 86 88 85 69 50 36 34 29 29 17 4 360 357 357 354 344 330 338 342 331 328 321 299 303 295 281 273 270 266 271
158 161 158 154 149 147 143 137 130 122 115 106 98 89 74 64 65 63 47 46 36 28 21 8 5 4 4 356 339 360 351 350 345 346 339 322 326 295 273 264 261 264 271
151 151 151 147 146 145 138 132 127 121 114 108 102 95 86 79 71 60 54 44 34 24 10 12 12 9 9 1 350 8 24 14 18 6 1 345 339 328 311 281 271 271 261
151 149 144 142 142 141 138 133 129 125 116 107 96 88 80 74 73 65 58 47 34 23 15 15 14 11 9 10 10 14 5 9 18 8 4 3 357 348 338 310 285 269 260
146 142 139 139 140 141 137 130 133 126 120 114 104 95 87 78 70 64 53 44 35 25 25 22 18 15 16 13 12 10 7 9 11 9 4 4 8 4 347 334 308 298 276
141 139 140 142 145 143 136 134 134 121 118 118 114 103 94 83 70 61 49 40 36 30 27 27 24 20 20 19 13 10 12 15 12 9 4 2 4 1 9 341 354 105 144
141 142 144 148 146 140 136 135 130 127 123 116 109 101 91 80 70 62 51 41 34 29 26 26 26 23 23 19 14 14 14 16 16 16 14 9 3 357 351 355 359 163 186
147 148 148 147 145 143 140 136 133 129 126 121 111 101 95 90 79 68 56 46 38 34 30 31 34 29 29 20 3 2 15 16 19 21 26 30 24 11 347 348 344 267 226
155 154 152 149 151 149 145 139 133 132 133 125 118 110 107 101 87 73 63 52 43 37 37 35 34 32 32 14 355 341 9 18 22 19 22 46 53 48 38 311 309 302 268
158 159 157 154 152 150 146 145 142 141 137 132 128 127 121 109 98 78 70 56 46 42 40 36 38 40 35 10 356 347 357 32 24 13 11 21 36 5 21 98 185 182 224
157 156 155 152 150 147 147 146 146 146 143 136 132 130 119 106 97 77 63 54 50 44 38 34 33 34 36 10 356 343 2 33 27 25 25 24 22 28 6 15 49 64 62
153 151 152 150 148 150 151 152 150 150 146 139 133 124 114 103 95 84 65 50 50 46 40 39 31 29 34 14 354 338 21 42 41 38 34 28 34 26 356 11 45 59 66
143 144 146 145 147 152 155 153 150 148 143 138 133 119 108 100 91 82 67 60 52 41 38 42 34 28 26 18 359 341 4 36 39 61 64 58 34 16 360 6 31 46 44
139 142 145 146 147 152 155 151 146 144 142 140 133 122 111 108 99 88 68 59 46 42 38 37 41 45 34 42 15 357 358 14 19 35 45 55 41 19 6 358 23 28 355
142 145 145 143 146 152 153 148 145 145 148 145 137 131 127 123 116 119 105 81 47 80 73 64 49 66 67 38 36 15 7 346 6 15 26 49 29 10 359 8 24 341 298
144 145 144 141 144 151 156 150 147 154 155 151 144 139 141 143 145 159 150 157 163 326 25 41 49 54 63 96 142 174 331 333 335 9 24 357 334 319 315 144 296 286 287
144 145 145 143 143 148 153 149 150 157 157 155 151 151 157 159 153 208 193 81 24 6 4 11 17 33 47 31 31 73 163 191 210 308 259 237 251 254 280 252 231 275 7
147 149 148 147 147 148 149 153 158 163 162 161 165 168 163 145 153 127 32 357 33 9 334 352 354 356 19 31 6 340 351 352 9 335 290 267 221 192 139 61 22 357 321
146 149 151 151 151 152 153 158 164 170 172 173 177 179 170 164 176 148 144 146 245 214 257 289 310 342 7 342 330 324 313 305 305 297 289 319 338 345 1 354 341 323 339